Regional Weather Roundup
Issued by NWS Wakefield, VA

Home | Current Version | Previous Version | Graphics & Text | Print | Product List | Glossary On
Versions: 1 2 3 4 5 6 7 8 9 10 11 12 13 14 15 16 17 18 19 20 21 22 23 24 25 26 27
000
ASUS41 KAKQ 261315
RWRAKQ

REGIONAL WEATHER ROUNDUP
NATIONAL WEATHER SERVICE WAKEFIELD VA
900 AM EDT WED JUL 26 2017

Note: "fair" indicates few or no clouds below 12,000 feet with no
significant weather and/or obstructions to visibility. * = Denotes
station may not report precipitation (e.g., rain,snow,etc.),
thunder or fog.

VAZ042-051-052>054-056-261400-
NORTHERN VIRGINIA

CITY           SKY/WX    TMP DP  RH WIND       PRES   REMARKS
WASH NATIONAL  PTSUNNY   75  67  76 VRB3      30.23R
DULLES         PTSUNNY   70  62  76 NE5       30.23F
FORT BELVOIR   CLOUDY    74  65  74 CALM      30.22S
QUANTICO       PTSUNNY   73  66  78 VRB3      30.23R
FREDERICKSBRG* PTSUNNY   71  65  81 CALM      30.22R
STAFFORD*      CLOUDY    69  66  90 NW5       30.27S
WARRENTON      MOSUNNY   72  61  67 N3        30.23S
CULPEPER*      MOSUNNY   71  64  80 N5        30.24F
MANASSAS*      CLOUDY    70  64  81 VRB3      30.24S
LEESBURG*      MOSUNNY   70  64  83 NE5       30.25F
WINCHESTER     SUNNY     64  61  88 E3        30.25S
FRONT ROYAL*   CLOUDY    63  61  94 CALM      30.25S
LURAY*         PTSUNNY   66  63  88 CALM      30.25F
$$

VAZ048-049-060>072-079>083-261400-
CENTRAL AND SOUTH CENTRAL VIRGINIA

CITY           SKY/WX    TMP DP  RH WIND       PRES   REMARKS
RICHMOND       MOSUNNY   76  66  71 CALM      30.21R
CHESTERFIELD*  NOT AVBL
PETERSBURG*    MOSUNNY   74  63  68 CALM      30.22R
HANOVER        PTSUNNY   73  63  70 N3        30.23R
TAPPAHANNOCK*  MOSUNNY   78  65  62 SE3       30.22R
QUINTON*       FAIR      73  67  83 CALM      30.21R
CHARLOTTSVILLE MOSUNNY   72  60  66 N3        30.24S
GORDONSVILLE*  PTSUNNY   71  62  72 CALM      30.23F
ORANGE*        MOSUNNY   68  61  77 N6        30.24S
LOUISA*        PTSUNNY   72  61  68 NE6       30.23F
BUMPASS*       CLOUDY    71  65  79 NW3       30.23S
FARMVILLE*     MOSUNNY   73  58  61 NE6       30.22S
CREWE*         FAIR      71  60  68 NE5       30.22S
FORT PICKETT*  PTSUNNY   72  62  69 N6        30.22R
CHASE CITY*    FAIR      73  64  72 CALM      30.22R
CLARKSVILLE*   PTSUNNY   73  64  73 NE6       30.22R
SOUTH HILL*    SUNNY     73  66  78 N3        30.27R
LAWRENCEVILLE* FAIR      75  66  73 NE3       30.21R
EMPORIA*       SUNNY     73  66  78 NW3       30.22R
$$

VAZ088>098-261400-
SOUTHEAST VIRGINIA

CITY           SKY/WX    TMP DP  RH WIND       PRES   REMARKS
NORFOLK        MOSUNNY   77  68  73 SE9       30.19R
VIRGINIA BEACH MOSUNNY   75  67  76 E8        30.18R
NORFOLK NAVAL  MOSUNNY   79  67  66 VRB7      30.20R
WEST POINT*    CLOUDY    76  67  71 SW3       30.22R
SALUDA*        CLOUDY    74  70  87 CALM      30.20R
NEWPORT NEWS   MOSUNNY   78  67  68 VRB6      30.19R
LANGLEY AFB    MOSUNNY   77  68  72 E8        30.19R
FORT EUSTIS    PTSUNNY   79  68  67 CALM      30.17R
WILLIAMSBURG*  MOSUNNY   77  68  73 CALM      30.21R
HR EXEC AP*    FAIR      75  68  78 E3        30.17R
FRANKLIN*      MOSUNNY   75  70  83 CALM      30.20R
US460-WAKEFLD  MOSUNNY   75  69  81 CALM      30.20R
$$

VAZ020-022-025-037-045-261400-
WEST CENTRAL AND SOUTHWEST VIRGINIA

CITY           SKY/WX    TMP DP  RH WIND       PRES   REMARKS
STAUNTON*      CLOUDY    67  59  76 CALM      30.28S
WAYNESBORO*    CLOUDY    68  59  74 CALM      30.27S
HOT SPRINGS VA CLOUDY    61  50  67 CALM      30.33S
LYNCHBURG      CLOUDY    69  59  70 NE7       30.25S
DANVILLE       PTSUNNY   73  65  75 NE7       30.23R
SOUTH BOSTON*  PTSUNNY   72  63  73 CALM      30.23R
MARTINSVILLE   CLOUDY    69  60  74 NE5       30.26S
ROANOKE        CLOUDY    70  59  68 SE3       30.28R
BLACKSBURG     CLOUDY    67  59  73 E3        30.32R
DUBLIN*        CLOUDY    67  57  70 CALM      30.30R
MARION*        CLOUDY    66  60  81 NE7       30.31R
HILLSVILLE*    CLOUDY    64  59  81 CALM      30.29R
RICHLANDS*     PTSUNNY   69  62  78 SE6       30.27R
WISE*          SUNNY     73  61  64 CALM      30.26F
ABINGDON*      CLOUDY    72  64  77 CALM      30.24R
$$

MDZ021>025-VAZ099-100-261400-
SOUTHERN MARYLAND AND THE DELMARVA PENINSULA

CITY           SKY/WX    TMP DP  RH WIND       PRES   REMARKS
PATUXENT RIVER PTSUNNY   76  68  76 E6        30.21R
BAY BRIDGE APT CLOUDY    73  66  78 E3        30.22R
LEONARDTOWN    CLOUDY    73  64  73 CALM      30.23R
DOVER          CLOUDY    70  70 100 NE5       30.22R
GEORGETOWN     CLOUDY    74  64  71 E7        30.23R
EASTON         PTSUNNY   75  66  73 E5        30.26R
CAMBRIDGE      SUNNY     73  66  78 E7        30.22R
SALISBURY      MOSUNNY   74  68  81 E5        30.21R
OCEAN CITY     PTSUNNY   73  67  81 E5        30.21R
WALLOPS ISLAND PTSUNNY   75  66  73 E3        30.20R
ACCOMACK*      CLOUDY    76  67  75 SE5       30.20R
$$

NCZ012>017-030>032-261400-
NORTH CENTRAL AND EASTERN NORTH CAROLINA

CITY           SKY/WX    TMP DP  RH WIND       PRES   REMARKS
ROANOKE RAPIDS FAIR      73  68  83 NE3       30.19S
RALEIGH        MOSUNNY   76  65  68 E9        30.19R
ELIZABETH CITY MOSUNNY   78  71  79 E10       30.17S
AHOSKIE*         N/A     72  69  89 N5        30.19S
EDENTON*       SUNNY     77  72  85 CALM      30.17S
CURRITUCK*     MOSUNNY   77  68  74 E6        30.18R
KILL DEVIL HLS SUNNY     77  67  69 E3        30.15S
MANTEO         SUNNY     77  66  69 E14       30.17R
CAPE HATTERAS  MOSUNNY   80  68  66 NE10      30.15R
TARBORO*       NOT AVBL
GOLDSBORO      MOSUNNY   76  71  84 NE7       30.16R
WASHINGTON     MOSUNNY   76  70  81 NE8       30.17R
GREENVILLE     SUNNY     75  68  78 NE5       30.18R
NEW BERN       CLOUDY    77  71  82 E8        30.17R
WILMINGTON     CLOUDY    79  71  76 NE8       30.13S
$$

VAZ048-261400-
ELSEWHERE

CITY           SKY/WX    TMP DP  RH WIND       PRES   REMARKS
HARRISBURG PA  PTSUNNY   69  63  81 CALM      30.24S
BALTIMORE      PTSUNNY   71  68  90 VRB3      30.22S
ANNAPOLIS      PTSUNNY   74  71  91 E9        30.22R
ANDREWS AFB    SUNNY     73  66  79 CALM      30.22R
PHILADELPHIA   CLOUDY    70  62  76 E6        30.26R
HENDERSON NC   CLOUDY    72  62  70 E6        30.21S
GREENSBORO     CLOUDY    73  65  75 NE7       30.22R
ROCKY MOUNT    SUNNY     76  68  76 VRB3      30.19R
$$

VAZ100-261400-
MARINE

STATION/POSITION TIME  TEMP    WIND        PRES    WAVE   SWELL
                       AIR SEA DIR/SP/G            HT/PER HT/PER
                 (UTC) (F)     (DEG/KT/KT) (MB)    (FT/S) (FT/S)
BRANDYWINE LGT   1242   71      80/ 11/ 13 1023.5R
CAPE MAY NJ      1248   72 74   60/  9/ 13 1022.7R
LEWES DE         1242   72 74  100/ 10/ 12 1022.9R
15NM E FENWICK I 1150   73 76   40/ 12/ 14 1022.7    3/ 5   2/ 7
OCEAN-CITY-INLET 1242   73 73   80/  4/  6 1023.1R
WACHAPREAGUE VA  1242   75 79   70/  5/  8 1022.3R
THOMAS POINT MD  1300   72 81  110/  9/ 10   N/A
GOOSES REEF MD   1300   74 82  100/  8/ 10 1024.0    1/ 2
COVE POINT MD    1242   72     100/  8/ 11 1023.7R
SOLOMONS ISLAND  1242   74 83   70/  8/ 10   N/A
BISHOPS HEAD MD  1242   75 79   80/  7/  9 1022.9R
PINEY POINT MD   1242          260/  2/  3   N/A
CAMBRIDGE MD     1242   74 84              1024.0R
LEWISETTA VA     1242   74 83  260/  2/  3 1022.6R
RAPPAHANNOCK LGT 1242          120/  5/  6 1023.0R
STINGRAY PT      1300   76 83  160/  6/  8 1022.8    1/ 3
YORK RVR RNG VA  1242   76     140/  5/  7 1022.8R
YORKTOWN VA      1242   76 82  130/  6/  7 1022.2R
JAMESTOWN VA     1300      85  160/  4/  6   N/A     0
DOMINION TERM VA 1242   77     140/  1/  4 1022.3R
KIPTOPEKE VA     1242      75  130/  7/ 10   N/A
CHES BAY BRIDGE  1242   74 77   90/  7/  9 1022.1R
CAPE HENRY VA    1242   73      70/  6/  7   N/A
WILLOUBY STN VA  1242   74     110/  8/  9 1022.2R
S CRANEY ISL VA  1242   76      80/  7/  8 1021.9R
CAPE HENRY BUOY  1230      71                N/A     3/ 6
1ST LANDING BUOY 1300   75 77              1022.5    2/ 3
64NM E OF VA BCH 1250   75 77   60/ 10/ 14 1021.9R   4/ 6   3/ 6
DUCK PIER NC     1242   76 75   70/ 12/ 14 1021.1R
44100 DUCK FRF   1235      77                N/A     4/ 6
44056 DUCK FRF   1300      74                N/A     4/ 6
OREGON INLET NC  1242   76 71   50/ 10/ 14 1021.0R
HATTERAS NC      1242   78 77   60/ 10/ 13 1020.8R
DIAMOND SHLS NC  1250   81 83   50/ 12/ 16 1020.1R   3/ 5   2/ 7
CAPE LOOKOUT NC  1200   78      40/ 17/ 18 1019.9R
$$




USA.gov is the U.S. government's official web portal to all federal, state and local government web resources and services.